Year,Month,Day,Hour,Minute,Value (Times are PST for insolation in W/m^2)
2017,04,25,00,00,0.00
2017,04,25,00,01,0.00
2017,04,25,00,02,0.00
2017,04,25,00,03,0.00
2017,04,25,00,04,0.00
2017,04,25,00,05,0.00
2017,04,25,00,06,0.00
2017,04,25,00,07,0.00
2017,04,25,00,08,0.00
2017,04,25,00,09,0.00
2017,04,25,00,10,0.00
2017,04,25,00,11,0.00
2017,04,25,00,12,0.00
2017,04,25,00,13,0.00
2017,04,25,00,14,0.00
2017,04,25,00,15,0.00
2017,04,25,00,16,0.00
2017,04,25,00,17,0.00
2017,04,25,00,18,0.00
2017,04,25,00,19,0.00
2017,04,25,00,20,0.00
2017,04,25,00,21,0.00
2017,04,25,00,22,0.00
2017,04,25,00,23,0.00
2017,04,25,00,24,0.00
2017,04,25,00,25,0.00
2017,04,25,00,26,0.00
2017,04,25,00,27,0.00
2017,04,25,00,28,0.00
2017,04,25,00,29,0.00
2017,04,25,00,30,0.00
2017,04,25,00,31,0.00
2017,04,25,00,32,0.00
2017,04,25,00,33,0.00
2017,04,25,00,34,0.00
2017,04,25,00,35,0.00
2017,04,25,00,36,0.00
2017,04,25,00,37,0.00
2017,04,25,00,38,0.00
2017,04,25,00,39,0.00
2017,04,25,00,40,0.00
2017,04,25,00,41,0.00
2017,04,25,00,42,0.00
2017,04,25,00,43,0.00
2017,04,25,00,44,0.00
2017,04,25,00,45,0.00
2017,04,25,00,46,0.00
2017,04,25,00,47,0.00
2017,04,25,00,48,0.00
2017,04,25,00,49,0.00
2017,04,25,00,50,0.00
2017,04,25,00,51,0.00
2017,04,25,00,52,0.00
2017,04,25,00,53,0.00
2017,04,25,00,54,0.00
2017,04,25,00,55,0.00
2017,04,25,00,56,0.00
2017,04,25,00,57,0.00
2017,04,25,00,58,0.00
2017,04,25,00,59,0.00
2017,04,25,01,00,0.00
2017,04,25,01,01,0.00
2017,04,25,01,02,0.00
2017,04,25,01,03,0.00
2017,04,25,01,04,0.00
2017,04,25,01,05,0.00
2017,04,25,01,06,0.00
2017,04,25,01,07,0.00
2017,04,25,01,08,0.00
2017,04,25,01,09,0.00
2017,04,25,01,10,0.00
2017,04,25,01,11,0.00
2017,04,25,01,12,0.00
2017,04,25,01,13,0.00
2017,04,25,01,14,0.00
2017,04,25,01,15,0.00
2017,04,25,01,16,0.00
2017,04,25,01,17,0.00
2017,04,25,01,18,0.00
2017,04,25,01,19,0.00
2017,04,25,01,20,0.00
2017,04,25,01,21,0.00
2017,04,25,01,22,0.00
2017,04,25,01,23,0.00
2017,04,25,01,24,0.00
2017,04,25,01,25,0.00
2017,04,25,01,26,0.00
2017,04,25,01,27,0.00
2017,04,25,01,28,0.00
2017,04,25,01,29,0.00
2017,04,25,01,30,0.00
2017,04,25,01,31,0.00
2017,04,25,01,32,0.00
2017,04,25,01,33,0.00
2017,04,25,01,34,0.00
2017,04,25,01,35,0.00
2017,04,25,01,36,0.00
2017,04,25,01,37,0.00
2017,04,25,01,38,0.00
2017,04,25,01,39,0.00
2017,04,25,01,40,0.00
2017,04,25,01,41,0.00
2017,04,25,01,42,0.00
2017,04,25,01,43,0.00
2017,04,25,01,44,0.00
2017,04,25,01,45,0.00
2017,04,25,01,46,0.00
2017,04,25,01,47,0.00
2017,04,25,01,48,0.00
2017,04,25,01,49,0.00
2017,04,25,01,50,0.00
2017,04,25,01,51,0.00
2017,04,25,01,52,0.00
2017,04,25,01,53,0.00
2017,04,25,01,54,0.00
2017,04,25,01,55,0.00
2017,04,25,01,56,0.00
2017,04,25,01,57,0.00
2017,04,25,01,58,0.00
2017,04,25,01,59,0.00
2017,04,25,02,00,0.00
2017,04,25,02,01,0.00
2017,04,25,02,02,0.00
2017,04,25,02,03,0.00
2017,04,25,02,04,0.00
2017,04,25,02,05,0.00
2017,04,25,02,06,0.00
2017,04,25,02,07,0.00
2017,04,25,02,08,0.00
2017,04,25,02,09,0.00
2017,04,25,02,10,0.00
2017,04,25,02,11,0.00
2017,04,25,02,12,0.00
2017,04,25,02,13,0.00
2017,04,25,02,14,0.00
2017,04,25,02,15,0.00
2017,04,25,02,16,0.00
2017,04,25,02,17,0.00
2017,04,25,02,18,0.00
2017,04,25,02,19,0.00
2017,04,25,02,20,0.00
2017,04,25,02,21,0.00
2017,04,25,02,22,0.00
2017,04,25,02,23,0.00
2017,04,25,02,24,0.00
2017,04,25,02,25,0.00
2017,04,25,02,26,0.00
2017,04,25,02,27,0.00
2017,04,25,02,28,0.00
2017,04,25,02,29,0.00
2017,04,25,02,30,0.00
2017,04,25,02,31,0.00
2017,04,25,02,32,0.00
2017,04,25,02,33,0.00
2017,04,25,02,34,0.00
2017,04,25,02,35,0.00
2017,04,25,02,36,0.00
2017,04,25,02,37,0.00
2017,04,25,02,38,0.00
2017,04,25,02,39,0.00
2017,04,25,02,40,0.00
2017,04,25,02,41,0.00
2017,04,25,02,42,0.00
2017,04,25,02,43,0.00
2017,04,25,02,44,0.00
2017,04,25,02,45,0.00
2017,04,25,02,46,0.00
2017,04,25,02,47,0.00
2017,04,25,02,48,0.00
2017,04,25,02,49,0.00
2017,04,25,02,50,0.00
2017,04,25,02,51,0.00
2017,04,25,02,52,0.00
2017,04,25,02,53,0.00
2017,04,25,02,54,0.00
2017,04,25,02,55,0.00
2017,04,25,02,56,0.00
2017,04,25,02,57,0.00
2017,04,25,02,58,0.00
2017,04,25,02,59,0.00
2017,04,25,03,00,0.00
2017,04,25,03,01,0.00
2017,04,25,03,02,0.00
2017,04,25,03,03,0.00
2017,04,25,03,04,0.00
2017,04,25,03,05,0.00
2017,04,25,03,06,0.00
2017,04,25,03,07,0.00
2017,04,25,03,08,0.00
2017,04,25,03,09,0.00
2017,04,25,03,10,0.00
2017,04,25,03,11,0.00
2017,04,25,03,12,0.00
2017,04,25,03,13,0.00
2017,04,25,03,14,0.00
2017,04,25,03,15,0.00
2017,04,25,03,16,0.00
2017,04,25,03,17,0.00
2017,04,25,03,18,0.00
2017,04,25,03,19,0.00
2017,04,25,03,20,0.00
2017,04,25,03,21,0.00
2017,04,25,03,22,0.00
2017,04,25,03,23,0.00
2017,04,25,03,24,0.00
2017,04,25,03,25,0.00
2017,04,25,03,26,0.00
2017,04,25,03,27,0.00
2017,04,25,03,28,0.00
2017,04,25,03,29,0.00
2017,04,25,03,30,0.00
2017,04,25,03,31,0.00
2017,04,25,03,32,0.00
2017,04,25,03,33,0.00
2017,04,25,03,34,0.00
2017,04,25,03,35,0.00
2017,04,25,03,36,0.00
2017,04,25,03,37,0.00
2017,04,25,03,38,0.00
2017,04,25,03,39,0.00
2017,04,25,03,40,0.00
2017,04,25,03,41,0.00
2017,04,25,03,42,0.00
2017,04,25,03,43,0.00
2017,04,25,03,44,0.00
2017,04,25,03,45,0.00
2017,04,25,03,46,0.00
2017,04,25,03,47,0.00
2017,04,25,03,48,0.00
2017,04,25,03,49,0.00
2017,04,25,03,50,0.00
2017,04,25,03,51,0.00
2017,04,25,03,52,0.00
2017,04,25,03,53,0.00
2017,04,25,03,54,0.00
2017,04,25,03,55,0.00
2017,04,25,03,56,0.00
2017,04,25,03,57,0.00
2017,04,25,03,58,0.00
2017,04,25,03,59,0.00
2017,04,25,04,00,0.00
2017,04,25,04,01,0.00
2017,04,25,04,02,0.00
2017,04,25,04,03,0.00
2017,04,25,04,04,0.00
2017,04,25,04,05,0.00
2017,04,25,04,06,0.00
2017,04,25,04,07,0.00
2017,04,25,04,08,0.00
2017,04,25,04,09,0.00
2017,04,25,04,10,0.00
2017,04,25,04,11,0.00
2017,04,25,04,12,0.00
2017,04,25,04,13,0.00
2017,04,25,04,14,0.00
2017,04,25,04,15,0.00
2017,04,25,04,16,0.00
2017,04,25,04,17,0.00
2017,04,25,04,18,0.00
2017,04,25,04,19,0.00
2017,04,25,04,20,0.00
2017,04,25,04,21,0.00
2017,04,25,04,22,0.00
2017,04,25,04,23,0.00
2017,04,25,04,24,0.00
2017,04,25,04,25,0.00
2017,04,25,04,26,0.00
2017,04,25,04,27,0.00
2017,04,25,04,28,0.00
2017,04,25,04,29,0.00
2017,04,25,04,30,0.00
2017,04,25,04,31,0.00
2017,04,25,04,32,0.00
2017,04,25,04,33,0.00
2017,04,25,04,34,0.00
2017,04,25,04,35,0.00
2017,04,25,04,36,0.00
2017,04,25,04,37,0.00
2017,04,25,04,38,0.00
2017,04,25,04,39,0.00
2017,04,25,04,40,0.00
2017,04,25,04,41,0.00
2017,04,25,04,42,0.00
2017,04,25,04,43,0.00
2017,04,25,04,44,0.00
2017,04,25,04,45,0.00
2017,04,25,04,46,0.00
2017,04,25,04,47,0.00
2017,04,25,04,48,0.00
2017,04,25,04,49,0.00
2017,04,25,04,50,0.00
2017,04,25,04,51,0.00
2017,04,25,04,52,0.00
2017,04,25,04,53,0.00
2017,04,25,04,54,0.00
2017,04,25,04,55,0.00
2017,04,25,04,56,0.00
2017,04,25,04,57,0.00
2017,04,25,04,58,0.00
2017,04,25,04,59,0.00
2017,04,25,05,00,0.00
2017,04,25,05,01,0.00
2017,04,25,05,02,0.00
2017,04,25,05,03,0.00
2017,04,25,05,04,0.00
2017,04,25,05,05,0.00
2017,04,25,05,06,0.00
2017,04,25,05,07,0.00
2017,04,25,05,08,0.00
2017,04,25,05,09,0.00
2017,04,25,05,10,0.00
2017,04,25,05,11,0.00
2017,04,25,05,12,0.00
2017,04,25,05,13,0.00
2017,04,25,05,14,0.00
2017,04,25,05,15,0.00
2017,04,25,05,16,0.00
2017,04,25,05,17,0.00
2017,04,25,05,18,0.00
2017,04,25,05,19,0.00
2017,04,25,05,20,0.00
2017,04,25,05,21,0.00
2017,04,25,05,22,0.00
2017,04,25,05,23,0.00
2017,04,25,05,24,0.00
2017,04,25,05,25,0.00
2017,04,25,05,26,0.00
2017,04,25,05,27,0.00
2017,04,25,05,28,0.00
2017,04,25,05,29,0.00
2017,04,25,05,30,0.00
2017,04,25,05,31,0.00
2017,04,25,05,32,0.00
2017,04,25,05,33,0.00
2017,04,25,05,34,0.00
2017,04,25,05,35,0.00
2017,04,25,05,36,0.00
2017,04,25,05,37,0.00
2017,04,25,05,38,0.00
2017,04,25,05,39,0.00
2017,04,25,05,40,0.00
2017,04,25,05,41,0.00
2017,04,25,05,42,0.00
2017,04,25,05,43,0.00
2017,04,25,05,44,0.00
2017,04,25,05,45,0.00
2017,04,25,05,46,0.00
2017,04,25,05,47,0.00
2017,04,25,05,48,0.00
2017,04,25,05,49,0.00
2017,04,25,05,50,0.00
2017,04,25,05,51,0.00
2017,04,25,05,52,0.00
2017,04,25,05,53,0.00
2017,04,25,05,54,0.00
2017,04,25,05,55,0.00
2017,04,25,05,56,0.00
2017,04,25,05,57,0.00
2017,04,25,05,58,0.00
2017,04,25,05,59,0.00
2017,04,25,06,00,0.00
2017,04,25,06,01,0.00
2017,04,25,06,02,0.00
2017,04,25,06,03,0.00
2017,04,25,06,04,0.00
2017,04,25,06,05,0.00
2017,04,25,06,06,0.00
2017,04,25,06,07,0.00
2017,04,25,06,08,0.00
2017,04,25,06,09,0.00
2017,04,25,06,10,0.00
2017,04,25,06,11,0.00
2017,04,25,06,12,0.00
2017,04,25,06,13,0.00
2017,04,25,06,14,3.30
2017,04,25,06,15,5.00
2017,04,25,06,16,5.00
2017,04,25,06,17,5.40
2017,04,25,06,18,7.00
2017,04,25,06,19,7.00
2017,04,25,06,20,7.00
2017,04,25,06,21,7.00
2017,04,25,06,22,7.00
2017,04,25,06,23,8.90
2017,04,25,06,24,9.40
2017,04,25,06,25,11.00
2017,04,25,06,26,11.40
2017,04,25,06,27,12.00
2017,04,25,06,28,12.00
2017,04,25,06,29,13.60
2017,04,25,06,30,13.90
2017,04,25,06,31,12.00
2017,04,25,06,32,12.60
2017,04,25,06,33,14.00
2017,04,25,06,34,14.00
2017,04,25,06,35,14.00
2017,04,25,06,36,15.60
2017,04,25,06,37,16.00
2017,04,25,06,38,16.40
2017,04,25,06,39,18.30
2017,04,25,06,40,19.00
2017,04,25,06,41,18.50
2017,04,25,06,42,18.70
2017,04,25,06,43,20.60
2017,04,25,06,44,19.10
2017,04,25,06,45,19.30
2017,04,25,06,46,21.60
2017,04,25,06,47,24.30
2017,04,25,06,48,26.00
2017,04,25,06,49,38.00
2017,04,25,06,50,49.40
2017,04,25,06,51,54.10
2017,04,25,06,52,58.00
2017,04,25,06,53,58.00
2017,04,25,06,54,58.00
2017,04,25,06,55,58.00
2017,04,25,06,56,59.30
2017,04,25,06,57,61.60
2017,04,25,06,58,64.90
2017,04,25,06,59,67.60
2017,04,25,07,00,70.60
2017,04,25,07,01,73.80
2017,04,25,07,02,76.60
2017,04,25,07,03,77.00
2017,04,25,07,04,78.60
2017,04,25,07,05,82.80
2017,04,25,07,06,84.40
2017,04,25,07,07,87.20
2017,04,25,07,08,90.40
2017,04,25,07,09,92.10
2017,04,25,07,10,95.70
2017,04,25,07,11,97.80
2017,04,25,07,12,100.00
2017,04,25,07,13,104.20
2017,04,25,07,14,106.20
2017,04,25,07,15,109.80
2017,04,25,07,16,112.10
2017,04,25,07,17,115.00
2017,04,25,07,18,117.60
2017,04,25,07,19,120.90
2017,04,25,07,20,123.70
2017,04,25,07,21,127.30
2017,04,25,07,22,129.60
2017,04,25,07,23,133.10
2017,04,25,07,24,136.00
2017,04,25,07,25,140.30
2017,04,25,07,26,142.10
2017,04,25,07,27,146.40
2017,04,25,07,28,148.90
2017,04,25,07,29,151.80
2017,04,25,07,30,154.70
2017,04,25,07,31,158.70
2017,04,25,07,32,98.10
2017,04,25,07,33,48.90
2017,04,25,07,34,47.30
2017,04,25,07,35,57.00
2017,04,25,07,36,100.90
2017,04,25,07,37,106.90
2017,04,25,07,38,79.00
2017,04,25,07,39,79.00
2017,04,25,07,40,72.70
2017,04,25,07,41,73.40
2017,04,25,07,42,70.00
2017,04,25,07,43,71.60
2017,04,25,07,44,79.60
2017,04,25,07,45,92.70
2017,04,25,07,46,102.40
2017,04,25,07,47,106.70
2017,04,25,07,48,105.00
2017,04,25,07,49,105.00
2017,04,25,07,50,107.40
2017,04,25,07,51,113.80
2017,04,25,07,52,120.70
2017,04,25,07,53,126.10
2017,04,25,07,54,129.90
2017,04,25,07,55,134.40
2017,04,25,07,56,138.50
2017,04,25,07,57,143.60
2017,04,25,07,58,147.10
2017,04,25,07,59,148.00
2017,04,25,08,00,146.40
2017,04,25,08,01,142.30
2017,04,25,08,02,141.00
2017,04,25,08,03,141.90
2017,04,25,08,04,144.80
2017,04,25,08,05,143.90
2017,04,25,08,06,137.30
2017,04,25,08,07,128.80
2017,04,25,08,08,118.50
2017,04,25,08,09,113.80
2017,04,25,08,10,113.90
2017,04,25,08,11,116.00
2017,04,25,08,12,114.90
2017,04,25,08,13,110.70
2017,04,25,08,14,104.90
2017,04,25,08,15,100.20
2017,04,25,08,16,97.80
2017,04,25,08,17,98.50
2017,04,25,08,18,105.70
2017,04,25,08,19,117.70
2017,04,25,08,20,132.30
2017,04,25,08,21,146.30
2017,04,25,08,22,154.50
2017,04,25,08,23,152.40
2017,04,25,08,24,150.80
2017,04,25,08,25,162.70
2017,04,25,08,26,185.70
2017,04,25,08,27,227.70
2017,04,25,08,28,256.40
2017,04,25,08,29,308.70
2017,04,25,08,30,249.50
2017,04,25,08,31,215.90
2017,04,25,08,32,206.10
2017,04,25,08,33,219.70
2017,04,25,08,34,295.00
2017,04,25,08,35,335.40
2017,04,25,08,36,417.10
2017,04,25,08,37,383.00
2017,04,25,08,38,316.90
2017,04,25,08,39,155.50
2017,04,25,08,40,150.10
2017,04,25,08,41,159.00
2017,04,25,08,42,231.40
2017,04,25,08,43,307.60
2017,04,25,08,44,301.90
2017,04,25,08,45,374.10
2017,04,25,08,46,403.50
2017,04,25,08,47,394.00
2017,04,25,08,48,394.00
2017,04,25,08,49,378.40
2017,04,25,08,50,442.60
2017,04,25,08,51,446.10
2017,04,25,08,52,433.70
2017,04,25,08,53,445.00
2017,04,25,08,54,352.80
2017,04,25,08,55,279.00
2017,04,25,08,56,393.90
2017,04,25,08,57,416.80
2017,04,25,08,58,409.10
2017,04,25,08,59,381.70
2017,04,25,09,00,365.30
2017,04,25,09,01,419.70
2017,04,25,09,02,415.00
2017,04,25,09,03,427.60
2017,04,25,09,04,443.00
2017,04,25,09,05,467.70
2017,04,25,09,06,475.00
2017,04,25,09,07,478.10
2017,04,25,09,08,487.60
2017,04,25,09,09,495.50
2017,04,25,09,10,501.70
2017,04,25,09,11,506.00
2017,04,25,09,12,512.70
2017,04,25,09,13,517.90
2017,04,25,09,14,521.60
2017,04,25,09,15,525.70
2017,04,25,09,16,528.40
2017,04,25,09,17,534.70
2017,04,25,09,18,538.40
2017,04,25,09,19,516.60
2017,04,25,09,20,503.00
2017,04,25,09,21,542.60
2017,04,25,09,22,533.30
2017,04,25,09,23,521.20
2017,04,25,09,24,474.10
2017,04,25,09,25,454.30
2017,04,25,09,26,282.30
2017,04,25,09,27,308.60
2017,04,25,09,28,368.00
2017,04,25,09,29,437.40
2017,04,25,09,30,491.30
2017,04,25,09,31,511.30
2017,04,25,09,32,508.70
2017,04,25,09,33,561.60
2017,04,25,09,34,577.10
2017,04,25,09,35,588.80
2017,04,25,09,36,592.70
2017,04,25,09,37,601.60
2017,04,25,09,38,527.60
2017,04,25,09,39,481.70
2017,04,25,09,40,406.00
2017,04,25,09,41,346.20
2017,04,25,09,42,363.80
2017,04,25,09,43,381.70
2017,04,25,09,44,401.00
2017,04,25,09,45,407.50
2017,04,25,09,46,467.90
2017,04,25,09,47,473.00
2017,04,25,09,48,481.60
2017,04,25,09,49,462.30
2017,04,25,09,50,418.80
2017,04,25,09,51,438.90
2017,04,25,09,52,482.60
2017,04,25,09,53,567.70
2017,04,25,09,54,587.70
2017,04,25,09,55,610.50
2017,04,25,09,56,607.90
2017,04,25,09,57,622.60
2017,04,25,09,58,614.80
2017,04,25,09,59,598.30
2017,04,25,10,00,582.70
2017,04,25,10,01,548.90
2017,04,25,10,02,568.50
2017,04,25,10,03,555.20
2017,04,25,10,04,550.30
2017,04,25,10,05,532.30
2017,04,25,10,06,513.30
2017,04,25,10,07,516.00
2017,04,25,10,08,533.90
2017,04,25,10,09,544.50
2017,04,25,10,10,573.30
2017,04,25,10,11,591.20
2017,04,25,10,12,596.00
2017,04,25,10,13,623.40
2017,04,25,10,14,601.40
2017,04,25,10,15,660.90
2017,04,25,10,16,621.10
2017,04,25,10,17,659.90
2017,04,25,10,18,646.20
2017,04,25,10,19,631.60
2017,04,25,10,20,620.70
2017,04,25,10,21,587.70
2017,04,25,10,22,596.80
2017,04,25,10,23,587.60
2017,04,25,10,24,589.00
2017,04,25,10,25,586.20
2017,04,25,10,26,598.80
2017,04,25,10,27,588.80
2017,04,25,10,28,590.60
2017,04,25,10,29,592.50
2017,04,25,10,30,598.70
2017,04,25,10,31,597.10
2017,04,25,10,32,591.00
2017,04,25,10,33,585.60
2017,04,25,10,34,582.70
2017,04,25,10,35,591.90
2017,04,25,10,36,566.40
2017,04,25,10,37,508.00
2017,04,25,10,38,422.20
2017,04,25,10,39,315.00
2017,04,25,10,40,458.30
2017,04,25,10,41,547.70
2017,04,25,10,42,485.70
2017,04,25,10,43,541.20
2017,04,25,10,44,554.80
2017,04,25,10,45,568.80
2017,04,25,10,46,549.30
2017,04,25,10,47,519.40
2017,04,25,10,48,488.70
2017,04,25,10,49,445.40
2017,04,25,10,50,528.30
2017,04,25,10,51,537.30
2017,04,25,10,52,553.90
2017,04,25,10,53,562.10
2017,04,25,10,54,555.70
2017,04,25,10,55,542.70
2017,04,25,10,56,553.70
2017,04,25,10,57,572.10
2017,04,25,10,58,573.60
2017,04,25,10,59,576.80
2017,04,25,11,00,577.50
2017,04,25,11,01,591.00
2017,04,25,11,02,610.70
2017,04,25,11,03,596.30
2017,04,25,11,04,621.00
2017,04,25,11,05,649.80
2017,04,25,11,06,640.70
2017,04,25,11,07,626.20
2017,04,25,11,08,632.20
2017,04,25,11,09,651.60
2017,04,25,11,10,693.90
2017,04,25,11,11,686.00
2017,04,25,11,12,679.20
2017,04,25,11,13,663.00
2017,04,25,11,14,674.70
2017,04,25,11,15,695.80
2017,04,25,11,16,751.60
2017,04,25,11,17,781.30
2017,04,25,11,18,791.70
2017,04,25,11,19,817.30
2017,04,25,11,20,830.00
2017,04,25,11,21,547.80
2017,04,25,11,22,336.80
2017,04,25,11,23,343.00
2017,04,25,11,24,342.30
2017,04,25,11,25,320.80
2017,04,25,11,26,312.20
2017,04,25,11,27,309.20
2017,04,25,11,28,286.40
2017,04,25,11,29,259.20
2017,04,25,11,30,248.90
2017,04,25,11,31,249.60
2017,04,25,11,32,244.70
2017,04,25,11,33,236.30
2017,04,25,11,34,226.00
2017,04,25,11,35,218.20
2017,04,25,11,36,217.40
2017,04,25,11,37,216.40
2017,04,25,11,38,213.30
2017,04,25,11,39,215.10
2017,04,25,11,40,224.30
2017,04,25,11,41,242.60
2017,04,25,11,42,266.70
2017,04,25,11,43,287.30
2017,04,25,11,44,300.10
2017,04,25,11,45,307.70
2017,04,25,11,46,313.00
2017,04,25,11,47,314.50
2017,04,25,11,48,318.90
2017,04,25,11,49,317.80
2017,04,25,11,50,318.80
2017,04,25,11,51,332.90
2017,04,25,11,52,352.10
2017,04,25,11,53,367.50
2017,04,25,11,54,412.60
2017,04,25,11,55,502.60
2017,04,25,11,56,526.40
2017,04,25,11,57,461.30
2017,04,25,11,58,443.70
2017,04,25,11,59,511.70
2017,04,25,12,00,571.10
2017,04,25,12,01,809.00
2017,04,25,12,02,633.90
2017,04,25,12,03,388.30
2017,04,25,12,04,353.60
2017,04,25,12,05,346.40
2017,04,25,12,06,341.30
2017,04,25,12,07,338.10
2017,04,25,12,08,330.70
2017,04,25,12,09,315.40
2017,04,25,12,10,298.20
2017,04,25,12,11,289.20
2017,04,25,12,12,287.20
2017,04,25,12,13,290.40
2017,04,25,12,14,320.20
2017,04,25,12,15,376.80
2017,04,25,12,16,383.00
2017,04,25,12,17,475.80
2017,04,25,12,18,508.00
2017,04,25,12,19,483.10
2017,04,25,12,20,451.00
2017,04,25,12,21,410.40
2017,04,25,12,22,398.10
2017,04,25,12,23,396.40
2017,04,25,12,24,398.10
2017,04,25,12,25,433.00
2017,04,25,12,26,512.70
2017,04,25,12,27,480.30
2017,04,25,12,28,482.40
2017,04,25,12,29,489.30
2017,04,25,12,30,520.40
2017,04,25,12,31,534.30
2017,04,25,12,32,523.30
2017,04,25,12,33,544.70
2017,04,25,12,34,586.30
2017,04,25,12,35,549.60
2017,04,25,12,36,373.00
2017,04,25,12,37,364.30
2017,04,25,12,38,372.60
2017,04,25,12,39,381.00
2017,04,25,12,40,698.00
2017,04,25,12,41,773.80
2017,04,25,12,42,861.50
2017,04,25,12,43,815.40
2017,04,25,12,44,763.70
2017,04,25,12,45,669.30
2017,04,25,12,46,653.30
2017,04,25,12,47,650.70
2017,04,25,12,48,587.20
2017,04,25,12,49,541.70
2017,04,25,12,50,521.40
2017,04,25,12,51,475.40
2017,04,25,12,52,405.40
2017,04,25,12,53,375.70
2017,04,25,12,54,373.40
2017,04,25,12,55,377.90
2017,04,25,12,56,482.30
2017,04,25,12,57,497.40
2017,04,25,12,58,490.30
2017,04,25,12,59,488.10
2017,04,25,13,00,466.30
2017,04,25,13,01,442.30
2017,04,25,13,02,440.80
2017,04,25,13,03,437.70
2017,04,25,13,04,431.70
2017,04,25,13,05,431.00
2017,04,25,13,06,433.80
2017,04,25,13,07,438.00
2017,04,25,13,08,415.60
2017,04,25,13,09,409.70
2017,04,25,13,10,403.00
2017,04,25,13,11,403.90
2017,04,25,13,12,409.00
2017,04,25,13,13,408.00
2017,04,25,13,14,404.00
2017,04,25,13,15,412.90
2017,04,25,13,16,448.10
2017,04,25,13,17,527.70
2017,04,25,13,18,557.80
2017,04,25,13,19,528.00
2017,04,25,13,20,545.20
2017,04,25,13,21,533.00
2017,04,25,13,22,520.30
2017,04,25,13,23,517.30
2017,04,25,13,24,517.40
2017,04,25,13,25,497.70
2017,04,25,13,26,478.00
2017,04,25,13,27,485.80
2017,04,25,13,28,475.80
2017,04,25,13,29,462.50
2017,04,25,13,30,460.90
2017,04,25,13,31,462.00
2017,04,25,13,32,475.00
2017,04,25,13,33,475.40
2017,04,25,13,34,482.10
2017,04,25,13,35,473.60
2017,04,25,13,36,456.70
2017,04,25,13,37,449.50
2017,04,25,13,38,437.10
2017,04,25,13,39,426.80
2017,04,25,13,40,421.10
2017,04,25,13,41,420.00
2017,04,25,13,42,420.00
2017,04,25,13,43,418.40
2017,04,25,13,44,418.40
2017,04,25,13,45,424.90
2017,04,25,13,46,429.00
2017,04,25,13,47,416.60
2017,04,25,13,48,385.40
2017,04,25,13,49,356.80
2017,04,25,13,50,333.80
2017,04,25,13,51,320.40
2017,04,25,13,52,317.70
2017,04,25,13,53,332.10
2017,04,25,13,54,352.90
2017,04,25,13,55,365.70
2017,04,25,13,56,375.90
2017,04,25,13,57,382.00
2017,04,25,13,58,386.60
2017,04,25,13,59,384.30
2017,04,25,14,00,380.00
2017,04,25,14,01,377.20
2017,04,25,14,02,374.30
2017,04,25,14,03,371.60
2017,04,25,14,04,371.00
2017,04,25,14,05,370.90
2017,04,25,14,06,368.60
2017,04,25,14,07,368.20
2017,04,25,14,08,373.20
2017,04,25,14,09,378.80
2017,04,25,14,10,385.90
2017,04,25,14,11,394.50
2017,04,25,14,12,397.00
2017,04,25,14,13,398.40
2017,04,25,14,14,395.40
2017,04,25,14,15,394.00
2017,04,25,14,16,395.70
2017,04,25,14,17,399.70
2017,04,25,14,18,399.40
2017,04,25,14,19,398.90
2017,04,25,14,20,395.30
2017,04,25,14,21,389.90
2017,04,25,14,22,382.80
2017,04,25,14,23,377.80
2017,04,25,14,24,374.00
2017,04,25,14,25,368.10
2017,04,25,14,26,362.00
2017,04,25,14,27,355.90
2017,04,25,14,28,348.50
2017,04,25,14,29,341.00
2017,04,25,14,30,332.70
2017,04,25,14,31,326.50
2017,04,25,14,32,319.60
2017,04,25,14,33,313.20
2017,04,25,14,34,306.90
2017,04,25,14,35,300.50
2017,04,25,14,36,294.80
2017,04,25,14,37,288.10
2017,04,25,14,38,282.20
2017,04,25,14,39,277.10
2017,04,25,14,40,277.90
2017,04,25,14,41,279.70
2017,04,25,14,42,284.50
2017,04,25,14,43,291.10
2017,04,25,14,44,298.90
2017,04,25,14,45,303.40
2017,04,25,14,46,302.40
2017,04,25,14,47,297.20
2017,04,25,14,48,290.00
2017,04,25,14,49,278.90
2017,04,25,14,50,271.80
2017,04,25,14,51,266.80
2017,04,25,14,52,260.30
2017,04,25,14,53,255.70
2017,04,25,14,54,250.10
2017,04,25,14,55,245.60
2017,04,25,14,56,243.70
2017,04,25,14,57,243.00
2017,04,25,14,58,243.00
2017,04,25,14,59,245.00
2017,04,25,15,00,253.30
2017,04,25,15,01,266.60
2017,04,25,15,02,281.00
2017,04,25,15,03,292.20
2017,04,25,15,04,299.00
2017,04,25,15,05,304.20
2017,04,25,15,06,308.00
2017,04,25,15,07,310.60
2017,04,25,15,08,312.70
2017,04,25,15,09,309.00
2017,04,25,15,10,312.30
2017,04,25,15,11,328.90
2017,04,25,15,12,359.30
2017,04,25,15,13,388.70
2017,04,25,15,14,413.00
2017,04,25,15,15,430.00
2017,04,25,15,16,429.40
2017,04,25,15,17,413.90
2017,04,25,15,18,401.90
2017,04,25,15,19,401.20
2017,04,25,15,20,403.70
2017,04,25,15,21,409.70
2017,04,25,15,22,408.10
2017,04,25,15,23,406.70
2017,04,25,15,24,412.70
2017,04,25,15,25,423.90
2017,04,25,15,26,444.80
2017,04,25,15,27,448.70
2017,04,25,15,28,430.50
2017,04,25,15,29,419.70
2017,04,25,15,30,403.40
2017,04,25,15,31,402.00
2017,04,25,15,32,402.70
2017,04,25,15,33,393.20
2017,04,25,15,34,375.70
2017,04,25,15,35,361.30
2017,04,25,15,36,348.10
2017,04,25,15,37,336.30
2017,04,25,15,38,326.70
2017,04,25,15,39,319.50
2017,04,25,15,40,314.30
2017,04,25,15,41,313.00
2017,04,25,15,42,311.40
2017,04,25,15,43,311.00
2017,04,25,15,44,311.40
2017,04,25,15,45,314.00
2017,04,25,15,46,316.00
2017,04,25,15,47,313.10
2017,04,25,15,48,306.30
2017,04,25,15,49,305.60
2017,04,25,15,50,303.90
2017,04,25,15,51,295.70
2017,04,25,15,52,287.00
2017,04,25,15,53,277.90
2017,04,25,15,54,272.30
2017,04,25,15,55,267.00
2017,04,25,15,56,264.20
2017,04,25,15,57,264.00
2017,04,25,15,58,264.60
2017,04,25,15,59,268.30
2017,04,25,16,00,272.30
2017,04,25,16,01,277.60
2017,04,25,16,02,296.30
2017,04,25,16,03,313.30
2017,04,25,16,04,322.90
2017,04,25,16,05,334.40
2017,04,25,16,06,339.00
2017,04,25,16,07,348.70
2017,04,25,16,08,348.50
2017,04,25,16,09,350.00
2017,04,25,16,10,371.40
2017,04,25,16,11,380.40
2017,04,25,16,12,378.20
2017,04,25,16,13,391.00
2017,04,25,16,14,416.60
2017,04,25,16,15,422.00
2017,04,25,16,16,422.00
2017,04,25,16,17,419.70
2017,04,25,16,18,365.20
2017,04,25,16,19,331.60
2017,04,25,16,20,290.70
2017,04,25,16,21,260.80
2017,04,25,16,22,243.00
2017,04,25,16,23,235.50
2017,04,25,16,24,234.00
2017,04,25,16,25,232.00
2017,04,25,16,26,229.50
2017,04,25,16,27,225.80
2017,04,25,16,28,222.20
2017,04,25,16,29,218.20
2017,04,25,16,30,214.70
2017,04,25,16,31,213.20
2017,04,25,16,32,211.10
2017,04,25,16,33,211.00
2017,04,25,16,34,211.00
2017,04,25,16,35,210.10
2017,04,25,16,36,207.30
2017,04,25,16,37,201.80
2017,04,25,16,38,194.60
2017,04,25,16,39,188.10
2017,04,25,16,40,180.10
2017,04,25,16,41,174.50
2017,04,25,16,42,170.10
2017,04,25,16,43,166.80
2017,04,25,16,44,163.60
2017,04,25,16,45,160.70
2017,04,25,16,46,155.10
2017,04,25,16,47,147.70
2017,04,25,16,48,140.50
2017,04,25,16,49,134.10
2017,04,25,16,50,126.10
2017,04,25,16,51,117.00
2017,04,25,16,52,108.30
2017,04,25,16,53,100.30
2017,04,25,16,54,94.30
2017,04,25,16,55,89.50
2017,04,25,16,56,84.70
2017,04,25,16,57,80.80
2017,04,25,16,58,77.60
2017,04,25,16,59,76.20
2017,04,25,17,00,75.90
2017,04,25,17,01,73.60
2017,04,25,17,02,71.40
2017,04,25,17,03,70.00
2017,04,25,17,04,70.00
2017,04,25,17,05,72.80
2017,04,25,17,06,74.00
2017,04,25,17,07,75.90
2017,04,25,17,08,77.70
2017,04,25,17,09,82.50
2017,04,25,17,10,88.20
2017,04,25,17,11,93.20